When you browse on this site, cookies collect data to enhance your experience and personalize the content and advertising you see.
Visit our Privacy Policy to learn more. By continuing to use the site, you agree to this use of cookies and data.
  • In Switzerland
  • List of Countries
  • For 7 days
  • Water Temperature
  • Satellite Maps
  • Weather Map
  • Weather Widgets
  • user-avatar
    Login

    Hourly Weather Aarau

    Today, 17 December, Monday

    Time Temperature Precipitation Wind Pressure Humidity
    00:00 +2°C° 0 mm 1 mps 724 mmHg 94%
    01:00 +2°C° 0 mm 1 mps 724 mmHg 94%
    02:00 +2°C° 0 mm 1 mps 725 mmHg 94%
    03:00 +2°C° 0 mm 1 mps 725 mmHg 94%
    04:00 +2°C° 0 mm 1 mps 726 mmHg 94%
    05:00 +2°C° 0 mm 1 mps 726 mmHg 94%
    06:00 +2°C° 0 mm 1 mps 726 mmHg 93%
    07:00 +2°C° 0 mm 1 mps 727 mmHg 93%
    08:00 +3°C° 0 mm 1 mps 727 mmHg 92%
    09:00 +3°C° 0 mm 1 mps 728 mmHg 91%
    10:00 +4°C° 0 mm 1 mps 729 mmHg 90%
    11:00 +5°C° 0.1 mm 1 mps 729 mmHg 90%
    12:00 +5°C° 0.1 mm 1 mps 730 mmHg 90%
    13:00 +5°C° 0.1 mm 2 mps 730 mmHg 89%
    14:00 +5°C° 0.1 mm 2 mps 730 mmHg 91%
    15:00 +4°C° 0.1 mm 2 mps 731 mmHg 92%
    16:00 +4°C° 0.1 mm 2 mps 732 mmHg 94%
    17:00 +3°C° 0 mm 2 mps 732 mmHg 94%
    18:00 +3°C° 0 mm 2 mps 733 mmHg 93%
    19:00 +3°C° 0 mm 1 mps 733 mmHg 93%
    20:00 +2°C° 0 mm 1 mps 733 mmHg 92%
    21:00 +2°C° 0 mm 1 mps 734 mmHg 91%
    22:00 +1°C° 0 mm 1 mps 734 mmHg 90%
    23:00 +1°C° 0 mm 1 mps 734 mmHg 89%

    Tomorrow, 18 December, Tuesday

    Time Temperature Precipitation Wind Pressure Humidity
    00:00 +1°C° 0 mm 1 mps 734 mmHg 88%
    01:00 0°C° 0 mm 1 mps 734 mmHg 87%
    02:00 0°C° 0 mm 1 mps 734 mmHg 86%
    03:00 0°C° 0 mm 1 mps 733 mmHg 85%
    04:00 0°C° 0 mm 1 mps 733 mmHg 84%
    05:00 0°C° 0 mm 1 mps 733 mmHg 84%
    06:00 0°C° 0 mm 1 mps 732 mmHg 83%
    07:00 0°C° 0 mm 1 mps 732 mmHg 82%
    08:00 +1°C° 0 mm 1 mps 732 mmHg 80%
    09:00 +2°C° 0 mm 1 mps 732 mmHg 78%
    10:00 +2°C° 0 mm 1 mps 731 mmHg 77%
    11:00 +4°C° 0 mm 1 mps 731 mmHg 76%
    12:00 +5°C° 0 mm 1 mps 730 mmHg 74%
    13:00 +6°C° 0 mm 1 mps 729 mmHg 73%
    14:00 +5°C° 0 mm 1 mps 729 mmHg 76%
    15:00 +4°C° 0 mm 1 mps 729 mmHg 78%
    16:00 +4°C° 0 mm 1 mps 728 mmHg 80%
    17:00 +3°C° 0 mm 1 mps 728 mmHg 79%
    18:00 +2°C° 0 mm 1 mps 728 mmHg 77%
    19:00 +1°C° 0 mm 1 mps 728 mmHg 75%
    20:00 +1°C° 0 mm 1 mps 727 mmHg 74%
    21:00 +1°C° 0 mm 1 mps 727 mmHg 74%
    22:00 +1°C° 0 mm 1 mps 727 mmHg 73%
    23:00 +2°C° 0 mm 1 mps 727 mmHg 73%

    Day after tomorrow, 19 December, Wednesday

    Time Temperature Precipitation Wind Pressure Humidity
    00:00 +2°C° 0 mm 1 mps 727 mmHg 72%
    01:00 +3°C° 0 mm 1 mps 726 mmHg 71%
    02:00 +3°C° 0 mm 1 mps 726 mmHg 71%
    03:00 +3°C° 0 mm 1 mps 726 mmHg 70%
    04:00 +3°C° 0 mm 1 mps 726 mmHg 70%
    05:00 +3°C° 0 mm 1 mps 726 mmHg 71%
    06:00 +3°C° 0 mm 1 mps 726 mmHg 72%
    07:00 +4°C° 0 mm 1 mps 726 mmHg 73%
    08:00 +4°C° 0.1 mm 1 mps 726 mmHg 73%
    09:00 +5°C° 0.1 mm 1 mps 726 mmHg 74%
    10:00 +5°C° 0.1 mm 1 mps 726 mmHg 75%
    11:00 +6°C° 0.3 mm 1 mps 725 mmHg 77%
    12:00 +7°C° 0.3 mm 1 mps 725 mmHg 78%
    13:00 +7°C° 0.3 mm 1 mps 724 mmHg 80%
    14:00 +6°C° 0.7 mm 1 mps 725 mmHg 83%
    15:00 +6°C° 0.7 mm 1 mps 725 mmHg 86%
    16:00 +5°C° 0.7 mm 1 mps 725 mmHg 89%
    17:00 +5°C° 0.4 mm 1 mps 725 mmHg 91%
    18:00 +4°C° 0.4 mm 1 mps 725 mmHg 92%
    19:00 +4°C° 0.4 mm 1 mps 725 mmHg 93%
    20:00 +4°C° 0.3 mm 1 mps 725 mmHg 93%
    21:00 +4°C° 0.3 mm 1 mps 725 mmHg 93%
    22:00 +4°C° 0.3 mm 1 mps 725 mmHg 93%
    23:00 +4°C° 0.7 mm 1 mps 725 mmHg 93%

    20 December, Thursday

    Time Temperature Precipitation Wind Pressure Humidity
    00:00 +4°C° 0.7 mm 1 mps 725 mmHg 94%
    01:00 +4°C° 0.7 mm 1 mps 725 mmHg 94%
    02:00 +4°C° 0.2 mm 1 mps 725 mmHg 94%
    03:00 +4°C° 0.2 mm 1 mps 725 mmHg 95%
    04:00 +4°C° 0.2 mm 1 mps 725 mmHg 95%
    05:00 +4°C° 0.1 mm 1 mps 726 mmHg 95%
    06:00 +3°C° 0.1 mm 1 mps 726 mmHg 95%
    07:00 +3°C° 0.1 mm 1 mps 726 mmHg 95%
    08:00 +4°C° 0.1 mm 1 mps 727 mmHg 94%
    09:00 +4°C° 0.1 mm 1 mps 727 mmHg 93%
    10:00 +4°C° 0.1 mm 2 mps 727 mmHg 92%
    11:00 +4°C° 0 mm 2 mps 727 mmHg 89%
    12:00 +5°C° 0 mm 2 mps 727 mmHg 86%
    13:00 +5°C° 0 mm 3 mps 727 mmHg 82%
    14:00 +5°C° 0.1 mm 2 mps 727 mmHg 84%
    15:00 +5°C° 0.1 mm 2 mps 727 mmHg 87%
    16:00 +5°C° 0.1 mm 1 mps 727 mmHg 89%
    17:00 +5°C° 0.4 mm 1 mps 728 mmHg 90%
    18:00 +4°C° 0.4 mm 1 mps 728 mmHg 90%
    19:00 +4°C° 0.4 mm 1 mps 729 mmHg 91%
    20:00 +4°C° 0.2 mm 1 mps 729 mmHg 91%
    21:00 +3°C° 0.2 mm 2 mps 729 mmHg 91%
    22:00 +3°C° 0.2 mm 2 mps 730 mmHg 91%
    23:00 +3°C° 0.1 mm 2 mps 730 mmHg 91%

    21 December, Friday

    Time Temperature Precipitation Wind Pressure Humidity
    00:00 +2°C° 0.1 mm 2 mps 730 mmHg 90%
    01:00 +2°C° 0.1 mm 2 mps 730 mmHg 90%
    02:00 +2°C° 0 mm 2 mps 729 mmHg 89%
    03:00 +2°C° 0 mm 2 mps 729 mmHg 88%
    04:00 +1°C° 0 mm 2 mps 729 mmHg 87%
    05:00 +2°C° 0 mm 2 mps 729 mmHg 86%
    06:00 +2°C° 0 mm 2 mps 729 mmHg 85%
    07:00 +2°C° 0 mm 2 mps 729 mmHg 83%
    08:00 +3°C° 0 mm 2 mps 729 mmHg 82%
    09:00 +3°C° 0 mm 2 mps 729 mmHg 80%
    10:00 +4°C° 0 mm 2 mps 729 mmHg 79%
    11:00 +5°C° 0 mm 2 mps 728 mmHg 79%
    12:00 +6°C° 0 mm 2 mps 727 mmHg 78%
    13:00 +8°C° 0 mm 1 mps 727 mmHg 78%
    14:00 +8°C° 0.4 mm 1 mps 726 mmHg 81%
    15:00 +7°C° 0.4 mm 1 mps 726 mmHg 84%
    16:00 +7°C° 0.4 mm 1 mps 726 mmHg 87%
    17:00 +6°C° 1.2 mm 2 mps 726 mmHg 88%
    18:00 +6°C° 1.2 mm 2 mps 726 mmHg 90%
    19:00 +5°C° 1.2 mm 2 mps 726 mmHg 91%
    20:00 +6°C° 0.6 mm 2 mps 727 mmHg 91%
    21:00 +5°C° 0.6 mm 3 mps 727 mmHg 92%
    22:00 +7°C° 0.6 mm 3 mps 727 mmHg 92%
    23:00 +7°C° 0.2 mm 3 mps 727 mmHg 92%

    22 December, Saturday

    Time Temperature Precipitation Wind Pressure Humidity
    00:00 +8°C° 0.2 mm 3 mps 728 mmHg 92%
    01:00 +8°C° 0.2 mm 3 mps 728 mmHg 92%
    02:00 +8°C° 0 mm 3 mps 728 mmHg 93%
    03:00 +8°C° 0 mm 3 mps 728 mmHg 93%
    04:00 +8°C° 0 mm 3 mps 729 mmHg 93%
    05:00 +7°C° 0 mm 3 mps 729 mmHg 93%
    06:00 +7°C° 0 mm 3 mps 730 mmHg 93%
    07:00 +7°C° 0 mm 2 mps 730 mmHg 93%
    08:00 +7°C° 0 mm 2 mps 730 mmHg 93%
    09:00 +7°C° 0 mm 2 mps 731 mmHg 92%
    10:00 +7°C° 0 mm 2 mps 731 mmHg 91%
    11:00 +8°C° 0 mm 2 mps 731 mmHg 89%
    12:00 +9°C° 0 mm 2 mps 731 mmHg 86%
    13:00 +10°C° 0 mm 2 mps 730 mmHg 84%
    14:00 +9°C° 0.3 mm 2 mps 730 mmHg 86%
    15:00 +8°C° 0.3 mm 2 mps 730 mmHg 87%
    16:00 +9°C° 0.3 mm 1 mps 730 mmHg 89%
    17:00 +8°C° 2 mm 2 mps 730 mmHg 91%
    18:00 +7°C° 2 mm 2 mps 731 mmHg 92%
    19:00 +7°C° 2 mm 2 mps 731 mmHg 93%
    20:00 +7°C° 0.5 mm 2 mps 731 mmHg 93%
    21:00 +8°C° 0.5 mm 2 mps 732 mmHg 92%
    22:00 +8°C° 0.5 mm 2 mps 732 mmHg 92%
    23:00 +8°C° 0.1 mm 2 mps 732 mmHg 93%
    Show more